CAPE
377 362 404 607 936 1164 1419 1533 1527 1274 1161 1097 1019 654 458 466 301 364 634 846 991 1011 1030 580 642 1034 1085 927 1196 1413 1270 563 911 464 59 462 541 552 750 1164 1252 1241 1339
355 559 498 541 881 1201 1302 1580 1601 1649 1410 1238 1166 989 866 953 838 774 937 1173 1129 1121 1111 1075 811 1240 1168 1117 1343 1176 1125 1142 1000 781 845 490 262 1022 690 889 1175 1110 954
437 604 669 667 1031 1197 1322 1535 1702 1766 1610 1331 1417 1435 1225 1133 936 800 1039 1074 1269 1177 1253 1328 1272 1357 1540 1201 1282 1228 1446 747 128 942 556 40 0 39 64 637 428 698 573
479 686 795 812 877 1139 1306 1532 1746 1738 1702 1648 1217 1293 1136 933 923 1084 1326 1605 1707 1701 1635 1692 1883 2040 1579 1482 1614 1413 1700 1575 486 8 20 71 40 0 0 2 68 303 216
490 558 719 856 817 968 1117 1309 1790 1602 1560 1668 1428 1427 1451 1369 1317 1432 1687 1796 1872 2019 1995 2081 2131 2216 2016 1680 1506 1223 1602 1575 1187 441 8 0 0 0 3 0 0 3 285
472 658 728 863 1002 957 1074 1138 1741 1812 1709 1774 1764 1526 1534 1649 1590 1602 1661 1612 1627 1868 2080 1753 2156 2210 1836 1900 1858 1664 1756 1661 1603 1335 823 78 0 0 0 0 0 52 504
500 647 775 939 1057 1112 1075 1071 1515 1863 1865 1746 1679 1824 1807 1926 2001 2027 1351 1695 1093 1024 1152 1815 1793 1721 1948 1776 1837 1561 1938 1122 1457 1436 1330 300 0 0 1 1 1 332 396
105 350 601 914 1164 1234 1308 1193 1234 1834 1788 1731 1797 1878 1990 1906 1811 1762 1944 1767 1548 1613 2073 2513 2265 2286 2094 2092 1852 1866 1578 1383 1393 1269 1138 868 1 17 46 67 59 152 107
399 441 711 906 1136 1313 1497 1513 1559 1693 1796 1711 1919 2079 2120 2079 1807 2063 2209 1989 1996 1990 2024 2247 2423 2298 1607 1714 1859 1467 1398 1222 908 757 902 586 94 19 189 200 200 205 105
682 581 797 981 1197 1343 1484 1644 1743 1916 1850 1704 1741 1947 1990 2218 2243 2308 2354 2375 2343 2404 2517 2617 2576 2430 2208 2107 1549 932 497 730 499 520 547 134 21 30 113 183 169 129 93
496 892 1026 1080 1168 1283 1446 1681 1738 1824 1870 1826 1809 1898 1907 2028 2214 2196 2399 2738 2711 2857 2565 2544 2253 1957 1610 1374 1097 798 831 870 560 403 356 218 174 27 39 76 111 85 48
859 1087 1186 1193 1297 1415 1541 1694 1762 1822 1939 2188 2359 2277 2396 2437 2437 2471 2002 1747 1709 1500 1192 1000 791 657 477 321 223 162 60 107 221 468 410 521 406 540 282 30 84 111 56
1120 1327 1538 1771 1812 1919 1956 1990 1986 2089 2260 2470 2525 2516 2334 1693 1214 813 506 350 409 357 376 366 376 364 294 193 269 413 428 494 551 544 476 441 444 455 430 546 489 218 41
1440 1715 2026 2325 2411 2495 2608 2562 2531 2597 2484 2325 2028 1572 1330 1014 513 107 14 0 4 8 7 7 2 1 5 4 90 183 269 367 307 245 235 271 298 356 472 599 634 614 542
1627 1893 2159 2258 2272 2256 2372 2363 2333 2224 1978 1578 1064 362 132 20 3 4 1 2 4 2 2 2 2 3 1 2 5 0 2 2 1 2 5 10 2 1 10 166 567 668 628
1850 2109 2321 2343 2369 2460 2365 2178 1907 1489 1088 452 45 0 0 2 1 2 3 4 3 3 2 2 2 0 0 1 0 0 0 3 3 2 3 2 4 3 0 0 0 0 64
1965 2121 2308 2383 2425 2331 2006 1458 953 583 74 0 0 0 2 0 2 3 2 0 1 5 3 3 6 4 2 1 0 2 6 4 2 3 4 4 6 6 4 1 0 0 0
2132 2275 2362 2391 2234 1673 960 481 199 16 0 0 0 1 0 1 5 2 0 0 0 0 1 3 3 0 0 0 0 1 3 4 2 1 2 5 5 1 12 10 8 10 6
2314 2284 2341 2145 1516 784 299 45 1 0 0 0 0 0 0 0 0 0 0 0 0 0 0 1 1 0 0 0 0 0 0 0 0 0 0 0 0 0 0 0 0 0 1
2275 2213 2046 1422 676 234 22 0 0 0 0 0 0 0 0 0 0 0 0 0 0 0 0 4 5 0 0 0 0 0 6 8 15 13 10 0 0 0 0 7 5 5 18
2215 1933 1052 580 315 51 0 0 0 0 0 0 0 0 0 0 0 0 0 0 0 1 1 3 2 0 0 0 0 0 2 6 7 5 5 3 0 0 0 0 1 0 0
1752 746 557 455 135 13 2 0 0 0 0 0 0 0 0 0 0 0 0 0 0 0 0 0 0 0 0 0 0 0 0 0 0 0 0 0 0 0 0 0 0 0 16
651 470 442 232 28 46 0 0 0 0 0 0 0 0 0 0 0 0 0 0 0 0 0 0 0 0 0 0 0 0 0 0 0 0 0 0 0 0 0 0 0 0 0
448 305 185 68 41 141 76 0 0 0 0 0 0 0 0 0 0 0 0 0 0 0 0 0 0 0 0 0 0 0 0 0 0 0 0 0 0 0 0 0 0 0 0
258 129 84 113 213 266 214 15 0 0 0 0 0 0 0 0 0 0 0 0 0 0 0 0 0 0 0 0 0 0 0 0 0 0 0 0 1 3 3 4 6 12 9
154 111 133 226 291 338 202 17 0 0 0 0 0 0 0 0 0 0 0 0 0 0 0 0 0 0 0 0 0 0 0 0 0 1 0 1 1 2 5 7 8 13 18
CIN
-2 -6 -12 -21 -28 -25 -18 -17 -15 -14 -11 -12 -1 -15 -32 -29 -31 -21 -13 -9 -1 0 -2 0 -1 -1 -5 -9 -2 -1 -2 -35 -1 -13 -97 -3 -4 -1 -1 -2 -1 -1 -1
-4 -20 -21 -18 -24 -33 -33 -30 -23 -28 -19 -11 -8 -7 -6 -6 -4 -1 -3 -3 -4 -5 -2 -7 -11 -1 -1 -18 -2 -5 -1 -1 0 -1 0 -11 -9 -1 -2 -2 -1 0 -1
-3 -5 -18 -17 -33 -32 -39 -50 -36 -40 -30 -15 -6 -1 -7 -10 -5 -10 -2 -1 -7 -5 -6 -6 -10 -3 -6 -2 -10 -10 -1 -1 -25 -2 -2 -60 0 -20 -5 -3 -2 -2 -1
-6 -4 -9 -17 -18 -29 -38 -43 -53 -55 -46 -47 -27 -19 -3 -8 -10 -14 -3 -3 -11 -13 -13 -11 -7 -3 -5 -3 -1 0 -1 -1 -1 -6 -10 -37 -64 0 0 0 -3 -7 -2
-4 -4 -10 -19 -19 -32 -38 -42 -65 -75 -61 -57 -43 -29 -25 -1 -1 -1 -10 -14 -13 -12 -8 -8 -9 -3 -1 -1 -11 -7 -1 -1 -1 0 -2 0 0 0 0 0 0 -3 -3
-3 -3 -7 -17 -27 -34 -45 -46 -67 -78 -74 -62 -67 -57 -34 -15 -3 -1 -2 -1 -1 -1 -3 -9 -3 -4 -8 -1 -3 -1 -1 -1 -2 -4 -2 -21 0 0 0 0 0 -8 -4
-4 -4 -9 -20 -28 -41 -44 -42 -72 -73 -78 -76 -64 -55 -42 -24 -12 -7 -10 -8 -4 -3 -6 -8 -11 -6 -5 -4 -3 -2 -1 -2 -2 0 -1 -2 0 0 -1 -1 0 -2 -2
-27 -9 -26 -37 -45 -47 -65 -49 -58 -74 -75 -69 -64 -52 -41 -15 -5 -3 -4 0 -2 -2 0 0 -2 -5 -3 -1 -1 -4 -3 0 -2 -1 0 -1 -14 -27 -27 -32 -31 -4 -3
-6 -20 -29 -50 -62 -66 -79 -99 -89 -96 -83 -75 -59 -57 -49 -42 -14 -18 -17 -1 -1 -1 -1 -1 -1 -3 -4 -2 0 -6 -2 -4 -1 0 -1 0 -10 -21 -3 -4 -7 -7 -10
-13 -21 -27 -55 -70 -84 -93 -114 -118 -102 -91 -82 -60 -41 -36 -34 -21 -9 -6 -3 0 -1 0 -1 0 0 0 0 -8 -7 -2 -17 -8 -2 -13 -32 -53 -39 -11 -7 -17 -31 -36
-20 -34 -50 -78 -104 -117 -110 -132 -133 -104 -92 -78 -59 -47 -34 -25 -23 -9 -2 -1 -1 -5 -5 -1 -8 -10 -9 -5 -6 -10 -2 0 -6 -8 -22 -26 -18 -76 -92 -76 -64 -51 -48
-37 -66 -87 -111 -122 -103 -105 -102 -103 -81 -85 -90 -94 -67 -51 -40 -8 -30 -58 -68 -61 -78 -94 -98 -96 -90 -93 -100 -105 -92 -102 -43 -18 -2 -3 -1 -1 -1 -16 -78 -37 -10 -24
-74 -88 -86 -102 -101 -110 -103 -106 -94 -86 -89 -93 -61 -41 -42 -103 -138 -178 -219 -249 -196 -182 -149 -123 -93 -81 -71 -69 -43 -15 -6 0 0 0 0 0 -1 -1 -1 -1 -1 -3 -37
-86 -68 -87 -123 -165 -175 -160 -132 -108 -93 -87 -75 -94 -120 -117 -138 -249 -435 -249 -1 -103 -203 0 0 0 0 0 0 -137 -75 -50 -24 -30 -35 -34 -13 -9 -4 -1 0 0 -1 -1
-69 -93 -126 -210 -245 -241 -197 -164 -135 -120 -122 -140 -198 -422 -505 -126 0 0 -1 0 0 0 0 0 0 0 0 0 0 0 0 0 0 0 0 -105 0 0 -61 -101 0 0 0
-72 -118 -195 -215 -222 -192 -174 -166 -172 -204 -249 -448 -657 0 0 0 0 0 0 0 0 0 0 0 0 0 0 0 0 0 0 0 0 0 0 0 0 0 0 0 0 0 -125
-124 -197 -206 -209 -203 -189 -194 -247 -345 -440 -527 0 0 0 0 0 0 0 0 0 0 0 0 0 0 0 0 0 0 0 0 0 0 0 0 0 0 0 0 0 0 0 0
-215 -238 -232 -234 -216 -259 -377 -514 -628 -552 0 0 0 0 0 -1 0 0 0 0 0 -1 -1 0 0 0 0 0 0 -1 -1 0 0 0 -1 -1 0 0 0 0 0 0 0
-264 -267 -253 -267 -336 -467 -608 -791 -152 0 0 0 0 0 0 0 -1 0 0 0 0 0 0 0 -1 0 0 0 0 0 0 0 -2 0 0 0 0 0 0 0 0 0 0
-281 -291 -295 -368 -479 -638 -858 0 0 0 0 0 0 0 0 0 0 0 0 0 0 0 0 -1 -1 0 0 0 0 0 -1 -2 -1 -1 -2 0 0 0 0 0 -1 0 -1
-333 -334 -399 -441 -583 -817 0 0 0 0 0 0 0 0 0 0 0 0 0 -1 0 -1 0 0 0 0 0 0 0 0 -1 -1 -2 -1 -1 0 0 0 0 0 0 -1 0
-379 -436 -440 -549 -735 -856 -224 0 0 0 0 0 0 0 0 0 0 0 0 0 0 0 0 0 0 0 0 0 0 0 0 0 0 0 0 0 0 0 0 0 0 0 -29
-468 -455 -519 -667 -829 -759 -195 0 0 0 0 0 0 0 0 0 0 0 0 0 0 0 0 0 0 0 0 0 0 0 0 0 0 0 0 0 0 0 0 0 0 0 0
-490 -533 -647 -759 -767 -643 -658 -130 0 0 0 0 0 0 0 0 0 0 0 0 0 0 0 0 0 0 0 0 0 0 0 0 0 0 0 0 0 0 0 -1 -1 -2 0
-551 -639 -683 -680 -601 -531 -530 -771 0 0 0 0 0 0 0 0 0 0 0 0 0 0 0 0 0 0 0 0 0 0 0 0 0 0 0 0 -2 -4 -3 -2 -2 -2 -2
-653 -699 -669 -603 -551 -494 -546 -702 0 0 0 0 0 0 0 0 0 0 0 0 0 0 0 0 0 0 0 0 0 0 0 0 0 -3 0 -3 -3 -1 -1 -2 -4 -2 -3
Wind_Speed
19 17 20 21 22 22 22 22 22 24 23 23 23 23 22 21 22 22 22 22 22 21 21 21 21 20 21 22 23 22 23 24 24 27 25 24 11 17 15 13 12 12 11
20 21 22 24 23 23 23 23 23 23 20 21 23 21 21 21 21 20 21 21 21 20 20 19 19 17 8 10 22 22 24 23 22 26 20 17 26 16 19 19 16 15 15
21 23 24 24 24 23 23 23 24 22 22 22 22 21 20 19 18 18 18 19 20 19 18 17 16 9 8 7 8 12 10 25 25 19 19 22 22 29 22 13 21 18 20
23 24 24 24 24 23 24 24 24 23 23 23 22 21 20 19 18 18 17 18 18 18 17 16 14 13 12 10 13 13 17 19 24 23 20 23 27 27 25 24 23 22 20
24 25 25 25 24 24 24 24 24 23 23 23 21 21 20 18 18 17 17 17 16 16 17 16 15 10 7 7 13 15 14 18 19 23 24 24 24 23 24 27 25 24 21
23 24 23 23 23 24 24 24 23 23 22 22 22 21 20 19 18 17 16 16 16 16 4 17 13 7 6 4 7 11 11 16 21 25 25 25 26 26 25 25 25 26 24
24 24 24 24 24 25 25 25 24 23 23 22 21 20 20 19 18 17 17 17 16 18 21 14 7 6 5 4 4 12 15 18 21 20 21 24 24 24 24 24 24 24 24
26 26 26 25 25 25 24 24 24 23 22 21 20 19 18 17 17 16 17 16 14 14 13 5 3 3 3 5 9 13 14 12 15 16 19 23 22 20 22 23 25 26 25
25 26 27 27 25 24 23 23 22 21 21 20 18 18 17 16 16 15 14 11 12 13 2 5 1 2 2 11 14 13 20 20 16 18 17 19 17 18 23 22 23 25 26
27 27 27 26 24 23 22 21 20 19 19 18 17 16 15 13 13 11 9 10 11 7 5 3 4 5 7 13 17 17 18 20 18 19 20 19 12 9 13 21 24 23 20
28 27 24 24 23 22 21 20 19 18 17 16 15 13 12 11 9 7 6 5 3 5 5 12 16 18 16 17 17 16 14 14 15 14 16 13 10 9 11 10 16 24 19
12 22 26 24 23 21 21 20 19 18 17 16 15 13 12 11 13 14 16 18 19 22 24 23 22 21 21 21 20 18 17 14 14 13 11 9 11 11 9 11 7 18 20
2 12 16 16 19 20 20 20 19 18 18 17 17 17 16 17 17 18 19 21 21 22 23 23 23 23 23 22 21 20 19 18 18 16 16 15 13 10 10 9 9 11 13
9 10 12 13 14 16 16 16 17 17 17 17 17 17 18 18 19 20 21 22 23 23 24 24 24 24 25 25 24 22 22 24 25 25 24 24 22 20 18 15 13 15 15
10 12 14 15 14 14 14 15 16 17 17 18 19 19 19 20 20 21 21 23 24 24 24 25 25 25 26 27 25 24 25 25 25 26 26 25 28 28 26 23 24 23 21
13 12 12 13 14 14 15 15 16 17 18 19 19 20 20 21 22 22 23 24 24 24 25 25 25 26 27 27 27 25 26 26 27 27 27 27 29 28 29 28 27 26 27
15 14 13 13 13 14 15 16 17 17 18 19 20 20 21 22 22 23 24 24 25 25 25 25 26 26 26 27 27 27 27 27 28 29 29 29 30 29 28 28 28 28 27
14 12 12 12 13 14 15 16 17 18 18 19 20 21 21 22 22 23 23 24 24 25 25 25 25 26 27 26 26 26 26 27 28 29 29 30 30 30 28 27 28 28 27
11 12 13 13 14 14 15 16 17 18 18 19 20 20 21 21 22 22 23 23 23 24 25 25 25 26 27 27 27 25 25 26 27 28 31 31 31 32 31 27 27 27 27
12 14 13 14 14 15 16 17 17 18 19 19 20 20 20 21 22 22 23 23 23 24 24 24 25 26 26 28 28 28 25 27 27 28 30 32 31 30 30 28 27 27 26
14 13 14 14 14 15 16 17 18 19 19 20 20 20 21 21 21 22 22 22 23 22 23 23 24 25 26 27 28 28 26 26 27 28 29 30 30 31 30 29 28 26 23
14 15 14 15 15 17 18 19 19 19 19 20 20 20 20 20 21 21 21 21 22 22 22 22 23 24 26 27 28 28 28 28 27 29 28 28 28 28 31 29 29 26 22
17 16 16 16 17 19 19 19 19 20 20 20 20 20 20 20 20 20 21 21 21 22 22 22 22 23 23 24 26 28 28 29 29 29 27 25 29 27 28 29 30 29 29
20 19 17 17 19 19 19 19 20 20 19 19 19 19 19 19 19 19 20 21 21 21 21 21 22 22 24 24 25 26 27 29 27 23 27 26 25 27 28 29 30 30 29
20 19 18 18 19 19 18 19 19 19 18 18 18 18 18 18 18 19 20 20 21 21 21 21 21 21 22 23 24 24 26 27 26 25 28 29 29 30 30 29 29 28 29
20 18 18 18 18 17 16 18 17 17 16 15 15 16 16 16 16 17 18 20 19 20 20 20 21 21 20 20 21 22 23 24 23 24 28 29 29 30 30 29 29 29 30
Wind_Direction
138 115 133 135 142 141 136 135 151 154 149 161 166 168 198 219 209 207 215 215 216 215 213 214 222 226 258 287 282 290 284 303 319 294 287 320 6 349 350 352 358 359 1
129 146 145 143 149 141 143 144 157 155 141 143 161 174 173 191 194 195 200 198 200 200 196 204 220 216 66 40 310 322 292 333 344 312 351 5 301 356 347 340 350 353 352
149 126 143 144 145 147 148 144 150 141 152 162 163 164 179 198 193 196 192 192 194 204 196 195 189 138 124 79 68 31 224 301 325 354 347 337 330 311 335 358 333 341 337
138 143 144 146 145 147 150 145 141 148 155 160 162 165 170 156 178 186 196 200 191 196 194 194 188 180 179 29 15 14 356 350 331 333 341 330 314 319 327 326 328 333 335
129 139 144 141 144 145 151 150 143 138 149 157 168 169 176 184 188 200 207 204 200 196 202 199 196 162 119 51 11 359 1 347 345 337 334 332 329 330 329 322 324 327 334
145 149 151 151 155 153 153 148 145 145 146 153 161 169 176 183 194 201 212 208 215 223 191 220 195 142 74 71 37 12 5 349 335 325 327 327 324 324 325 325 324 320 326
150 147 148 145 151 154 156 157 154 154 156 158 163 170 178 189 203 211 216 242 226 252 269 240 147 67 65 170 34 7 359 348 333 336 336 330 328 326 326 326 326 323 323
140 140 145 144 144 147 151 154 154 157 156 161 164 168 169 174 186 187 216 214 210 219 214 155 123 58 47 27 13 5 4 9 357 349 344 335 329 329 325 323 320 321 323
150 137 140 145 146 147 148 152 157 159 164 164 169 170 171 175 190 198 201 194 207 218 147 203 210 221 351 3 358 358 352 353 356 349 349 343 338 327 314 318 318 317 319
153 146 150 152 156 156 153 152 152 155 157 162 159 159 158 160 171 172 179 202 219 213 217 228 236 6 8 3 354 353 356 351 354 349 348 349 358 7 341 321 316 319 328
152 159 169 160 145 144 140 139 139 139 143 145 140 135 132 124 123 124 103 82 100 40 29 10 -0 357 359 358 356 356 357 356 357 0 359 8 14 9 359 354 332 316 327
218 186 142 133 126 126 127 126 128 123 122 109 107 97 83 79 48 30 20 11 3 355 349 351 356 358 359 358 357 360 3 8 8 9 14 22 16 7 2 353 347 333 328
35 69 77 75 86 88 96 98 103 92 87 87 79 65 53 40 34 24 16 10 8 4 2 1 5 8 9 11 11 15 16 19 16 18 12 8 10 11 11 5 351 344 340
75 59 61 55 56 60 58 55 55 59 59 58 52 50 45 36 31 25 17 14 13 11 7 6 7 10 9 8 7 9 6 0 356 357 357 355 356 355 354 351 344 339 334
82 77 75 69 59 46 40 39 41 42 45 46 45 43 43 38 37 35 29 22 17 16 13 13 14 17 15 9 9 8 6 3 1 359 356 358 348 345 343 344 340 336 333
96 82 69 66 59 53 45 43 41 40 43 45 45 47 45 43 41 41 38 35 32 29 27 23 21 20 19 13 13 17 15 13 12 9 7 4 357 354 350 348 344 339 331
112 98 81 67 60 51 52 49 47 45 45 46 47 48 47 47 44 44 41 38 36 34 29 26 22 19 19 16 20 22 20 16 13 10 8 5 4 6 7 5 1 355 350
117 102 83 68 63 56 52 54 51 49 48 48 49 49 52 52 52 48 43 41 38 33 28 24 21 19 16 15 13 15 15 16 15 10 8 6 6 4 4 8 7 5 3
112 103 91 79 71 65 62 62 59 57 54 53 55 57 58 56 54 49 48 45 43 38 33 28 26 22 16 7 360 10 17 19 17 15 13 9 8 6 6 9 6 5 2
112 107 95 86 79 74 73 69 66 65 62 65 62 59 58 55 52 49 47 47 44 38 34 29 25 19 18 7 3 1 16 13 13 12 9 10 11 8 4 8 12 12 10
119 107 101 91 84 83 81 76 75 69 69 68 66 61 57 53 48 48 47 46 41 38 36 36 35 29 24 17 10 7 17 15 15 15 15 16 15 12 10 10 12 12 11
121 113 102 93 90 91 89 85 78 78 76 73 68 64 60 53 52 51 50 49 44 40 38 38 37 33 28 23 21 21 22 18 18 17 19 19 19 18 13 12 8 12 14
122 117 107 99 97 98 96 88 85 85 82 78 71 66 62 57 55 54 53 51 47 42 38 36 34 33 30 30 32 30 30 26 26 26 29 30 23 24 19 17 12 7 4
127 122 115 110 107 105 99 93 94 92 86 79 73 71 66 62 61 58 54 49 45 41 37 37 32 34 30 30 29 29 27 27 27 35 25 26 28 24 19 15 12 10 8
132 128 123 118 115 111 103 104 103 98 86 77 69 63 61 59 58 53 51 47 43 39 39 37 37 35 33 33 34 32 27 25 25 24 18 16 14 11 10 10 9 8 4
139 133 130 125 122 114 108 109 105 98 85 73 65 59 59 66 61 58 53 46 49 47 44 41 40 40 40 36 33 30 26 24 25 21 13 11 10 8 7 7 6 4 1